EW2461 Weather Reports


Display with metric or nautical units.
time (UTC)temp
F
wind
direction
speed
MPH
gust
MPH
rain 1hr
in
rain 24hr
in
rain mn
in
humidity
%
barometer
mb
20260507182438 54 284 3.0 7.0 0.00 0.94 0.94 92 1002.8
20260507181425 54 286 3.0 8.0 0.00 0.94 0.94 93 1002.9
20260507180351 53 265 3.0 8.0 0.00 0.94 0.94 93 1002.7
20260507175325 53 275 2.0 8.0 0.00 0.94 0.94 93 1002.7
20260507174347 53 337 2.0 7.0 0.00 0.94 0.94 94 1002.5
20260507172224 52 306 1.0 4.0 0.00 0.94 0.94 94 1002.8
20260507171242 52 269 1.0 5.0 0.00 0.94 0.94 94 1002.9
20260507165054 51 262 0.0 3.0 0.00 0.94 0.94 94 1003.0
20260507164113 50 355 0.0 3.0 0.00 0.94 0.94 94 1003.0
20260507163113 50 317 0.0 3.0 0.00 0.94 0.94 94 1003.3
20260507162041 49 317 0.0 4.0 0.00 0.94 0.94 94 1003.4
20260507161100 48 355 1.0 6.0 0.00 0.94 0.94 94 1002.5
20260507160041 48 289 1.0 7.0 0.03 0.94 0.94 94 1003.7
20260507155050 47 315 2.0 7.0 0.04 0.94 0.94 94 1003.6
20260507152922 47 242 1.0 5.0 0.03 0.92 0.92 94 1003.5
20260507151934 47 275 0.0 5.0 0.05 0.92 0.92 94 1002.8
20260507150906 47 314 0.0 6.0 0.13 0.91 0.91 94 1002.9
20260507145902 47 269 1.0 6.0 0.31 0.87 0.88 93 1003.5
20260507144837 48 242 2.0 5.0 0.11 0.85 0.85 93 1003.8
20260507143807 48 223 1.0 3.0 0.07 0.82 0.82 94 1003.6
20260507142744 49 279 1.0 3.0 0.00 0.81 0.81 94 1003.6
20260507141747 48 220 0.0 1.0 0.00 0.81 0.81 94 1003.2
20260507140811 48 268 0.0 0.0 0.00 0.80 0.81 93 1003.1
20260507135827 48 259 0.0 2.0 0.03 0.80 0.80 94 1003.3
20260507134830 48 156 0.0 2.0 0.08 0.80 0.80 94 1003.3
20260507133803 48 251 1.0 5.0 0.19 0.77 0.77 93 1003.6
20260507132736 48 149 0.0 5.0 0.12 0.74 0.74 94 1004.3
20260507131756 48 242 1.0 3.0 0.15 0.72 0.72 94 1004.5
20260507130749 48 169 0.0 3.0 0.16 0.70 0.70 94 1004.1
20260507125748 48 169 0.0 3.0 0.25 0.66 0.66 93 1003.9
20260507124738 48 175 1.0 6.0 0.36 0.62 0.62 93 1004.6
20260507122631 48 265 2.0 7.0 0.44 0.49 0.50 93 1004.7
20260507121632 48 234 1.0 13.0 0.15 0.45 0.45 93 1004.3
20260507115532 48 267 4.0 11.0 0.37 0.31 0.32 93 1005.1
20260507114549 49 231 2.0 9.0 0.00 0.29 0.29 93 1005.0
20260507113553 50 229 3.0 9.0 0.00 0.29 0.29 93 1004.6
20260507112609 50 257 3.0 8.0 0.00 0.29 0.29 93 1004.3
20260507111631 50 178 3.0 10.0 0.00 0.29 0.29 93 1004.0
20260507110602 50 190 3.0 12.0 0.00 0.29 0.29 93 1004.5
20260507105545 50 138 2.0 12.0 0.00 0.29 0.29 93 1004.6
20260507102226 50 218 3.0 12.0 0.00 0.29 0.29 93 1004.6
20260507100012 51 163 4.0 15.0 0.00 0.29 0.29 93 1004.8
20260507094948 51 211 3.0 12.0 0.00 0.29 0.29 93 1004.4
20260507093923 51 183 4.0 12.0 0.00 0.29 0.29 93 1004.0
20260507091816 51 209 3.0 12.0 0.00 0.29 0.29 93 1004.3
20260507084505 52 158 6.0 18.0 0.00 0.28 0.28 93 1004.9
20260507083526 52 173 5.0 16.0 0.00 0.28 0.28 93 1004.8
20260507080249 53 212 6.0 22.0 0.00 0.28 0.28 93 1004.7
20260507075259 53 236 5.0 16.0 0.00 0.28 0.28 92 1004.8
20260507074226 53 154 5.0 21.0 0.00 0.28 0.28 92 1004.8
20260507073242 53 114 5.0 23.0 0.00 0.28 0.28 92 1005.0
20260507072257 54 213 7.0 23.0 0.00 0.28 0.28 92 1005.1
20260507071319 54 212 6.0 19.0 0.05 0.28 0.28 92 1004.9
20260507070335 54 132 7.0 22.0 0.04 0.27 0.27 92 1005.1
20260507065305 55 194 7.0 26.0 0.03 0.26 0.26 92 1005.1
20260507064311 55 208 6.0 29.0 0.04 0.25 0.25 92 1005.1
20260507063330 56 223 7.0 29.0 0.11 0.25 0.25 92 1005.3
20260507062306 57 228 6.0 25.0 0.14 0.23 0.23 92 1005.3
20260507061233 57 146 7.0 25.0 0.17 0.19 0.20 92 1005.5
20260507055127 57 193 5.0 18.0 0.07 0.17 0.17 92 1005.6
20260507054056 57 100 7.0 15.0 0.17 0.16 0.16 92 1005.9
20260507051915 57 166 7.0 21.0 0.18 0.12 0.12 91 1006.6
20260507050926 57 200 7.0 23.0 0.33 0.09 0.10 91 1006.4
20260507045943 57 155 7.0 23.0 0.23 0.05 0.05 91 1006.7
20260507043753 58 165 6.0 22.0 0.00 0.00 0.00 91 1007.3
20260507042801 58 161 7.0 22.0 0.00 0.00 0.00 90 1007.6
20260507040652 58 153 6.0 17.0 0.00 0.00 0.00 91 1007.9
20260507034448 57 148 6.0 19.0 0.00 0.00 0.00 90 1008.2
20260507032348 58 172 6.0 19.0 0.00 0.00 0.00 88 1008.8
20260507031401 59 185 6.0 18.0 0.00 0.00 0.00 86 1009.0
20260507030409 59 117 6.0 18.0 0.00 0.00 0.00 86 1009.3
20260507025350 59 179 5.0 16.0 0.00 0.00 0.00 85 1009.7
20260507024334 60 192 4.0 24.0 0.00 0.00 0.00 85 1009.8
20260507023342 60 147 5.0 24.0 0.00 0.00 0.00 84 1010.1
20260507022353 60 125 5.0 20.0 0.00 0.00 0.00 84 1010.3
20260507021406 60 142 6.0 20.0 0.00 0.00 0.00 84 1010.4
20260507020355 59 78 6.0 17.0 0.00 0.00 0.00 85 1010.5
20260507015349 59 172 6.0 17.0 0.00 0.00 0.00 85 1011.0
20260507014332 59 190 5.0 17.0 0.00 0.00 0.00 85 1011.2
20260507013344 59 156 5.0 20.0 0.00 0.00 0.00 85 1011.1
20260507012322 58 200 5.0 20.0 0.00 0.00 0.00 85 1011.3
20260507011249 58 210 7.0 21.0 0.00 0.00 0.00 84 1011.6
20260507010257 59 138 6.0 21.0 0.00 0.00 0.00 84 1011.6
20260507004204 59 238 5.0 20.0 0.00 0.00 0.00 85 1011.9
20260507003150 59 209 4.0 19.0 0.00 0.00 0.00 85 1012.1
20260507002126 58 160 5.0 21.0 0.00 0.00 0.00 85 1011.1
20260507001103 58 203 7.0 21.0 0.00 0.00 0.00 85 1011.4
20260506233823 59 170 7.0 18.0 0.00 0.00 0.00 85 1012.4
20260506232846 59 211 7.0 18.0 0.00 0.00 0.00 84 1012.7
20260506231847 59 172 6.0 20.0 0.00 0.00 0.00 84 1012.7
20260506225748 59 169 6.0 17.0 0.00 0.00 0.00 85 1012.6
20260506224752 59 136 6.0 18.0 0.00 0.00 0.00 84 1012.5
20260506223758 59 202 7.0 18.0 0.00 0.00 0.00 84 1012.5
20260506222748 59 173 6.0 17.0 0.00 0.00 0.00 84 1012.4
20260506221747 59 186 6.0 17.0 0.00 0.00 0.00 84 1012.6
20260506220804 59 117 7.0 23.0 0.00 0.00 0.00 83 1012.9
20260506215827 60 151 6.0 23.0 0.00 0.00 0.00 83 1012.9
20260506213627 60 225 7.0 20.0 0.00 0.00 0.00 83 1012.8
20260506212628 60 173 7.0 20.0 0.00 0.00 0.00 82 1012.7
20260506211629 60 160 6.0 18.0 0.00 0.00 0.00 83 1012.8
20260506210653 60 113 5.0 23.0 0.00 0.00 0.00 82 1013.0
20260506205712 60 199 6.0 25.0 0.00 0.00 0.00 83 1013.4
20260506204650 60 180 7.0 25.0 0.00 0.00 0.00 82 1013.3
20260506203635 61 141 6.0 21.0 0.00 0.00 0.00 81 1013.2
20260506202646 61 200 7.0 21.0 0.00 0.00 0.00 81 1013.2
20260506201631 61 161 7.0 21.0 0.00 0.00 0.00 81 1013.1
20260506200617 61 200 7.0 19.0 0.00 0.00 0.00 80 1013.3
20260506194530 62 144 6.0 17.0 0.00 0.00 0.00 78 1013.2
20260506193505 63 150 8.0 21.0 0.00 0.00 0.00 78 1012.9
20260506192442 63 240 7.0 25.0 0.00 0.00 0.00 78 1013.1
20260506191423 64 175 7.0 25.0 0.00 0.00 0.00 77 1013.2
20260506190448 65 165 7.0 24.0 0.00 0.00 0.00 75 1013.0